Wind_Gust
7 10 13 20 10 3 5 9 9 9 6 8 4 4 9 8 17 12 8 9 5 9 10 14 12 13 18 16 16 19 17 19 17 15 17 18 20 19 20 20 19 17 15 17 19 18 17 18 20 17 17 17 16 17 18 22 21 20 20 15 15 13 13 14 12 11 12 12 11 5 8 7 6 6 4 5 4 4 3 4 5 6 7 6 7 7
5 10 22 12 4 7 9 9 5 4 3 5 8 6 14 5 17 16 12 9 8 10 11 6 7 17 20 18 14 16 20 22 23 21 19 20 20 21 22 21 20 17 15 19 17 18 16 16 19 18 16 15 19 16 17 18 23 22 20 20 18 15 14 13 14 13 13 10 10 9 9 6 6 6 6 4 2 3 3 4 5 5 6 6 7 7
7 23 13 4 11 8 7 5 3 6 8 5 8 9 9 17 10 18 13 10 8 5 14 10 9 23 20 19 12 23 25 29 30 30 29 26 22 22 23 22 22 20 18 20 21 19 19 21 21 16 16 19 21 20 18 11 9 14 17 16 13 13 13 12 11 11 11 6 7 7 8 8 7 3 5 6 4 5 6 4 4 5 5 6 5 6
13 14 19 16 5 6 8 6 3 3 3 7 5 6 15 9 6 19 9 5 4 12 10 8 12 28 13 9 10 14 23 22 26 29 27 30 30 28 32 29 26 21 23 22 23 22 22 23 18 13 17 19 11 12 13 14 16 14 14 13 14 12 9 11 10 9 5 7 5 6 10 7 7 8 6 6 5 5 5 4 4 5 6 6 6 6
19 18 4 8 7 9 10 9 6 6 12 5 7 8 9 11 13 17 19 11 7 8 7 7 10 21 9 11 10 6 9 18 18 12 9 5 6 13 14 14 16 20 22 24 24 23 22 23 16 18 21 15 13 13 16 17 19 18 18 18 17 13 10 10 10 10 8 10 9 10 10 9 10 9 8 9 6 4 5 5 4 5 5 5 6 6
16 22 4 7 9 8 9 11 11 9 11 9 9 15 14 15 15 13 11 9 14 17 4 9 17 14 11 12 12 6 10 17 16 18 18 18 20 20 21 21 18 19 19 24 25 24 21 22 16 18 17 17 15 15 14 15 17 16 16 14 13 9 8 11 9 9 9 11 13 12 13 11 10 10 11 10 11 6 7 7 4 3 5 5 5 4
22 7 10 9 9 9 10 15 9 14 13 7 17 16 20 20 15 13 12 3 9 12 7 3 4 24 14 7 5 9 11 12 10 15 17 19 20 20 20 22 23 21 19 18 19 20 20 19 19 19 20 20 19 19 13 12 15 15 15 14 14 12 8 6 6 6 8 9 10 12 12 11 13 13 6 5 6 9 4 7 7 5 4 5 7 3
10 7 6 6 7 9 7 10 13 18 12 13 14 13 12 11 11 13 12 12 14 7 12 4 11 13 11 3 7 4 19 17 16 14 15 17 18 18 18 22 20 20 19 21 20 21 18 18 24 27 25 23 25 20 15 16 14 16 16 13 12 9 9 7 7 6 7 10 9 9 9 10 12 12 10 8 6 5 6 9 7 7 5 5 6 6
6 9 8 8 6 7 14 18 11 17 19 21 7 10 12 17 18 15 11 9 6 2 20 12 2 7 8 9 8 10 20 13 18 20 20 20 18 20 18 18 19 21 23 22 23 23 25 24 25 24 24 20 18 17 19 18 17 16 15 14 11 11 10 8 7 8 7 8 12 12 12 10 7 9 10 7 6 8 7 9 5 7 6 6 6 6
10 9 8 11 10 14 17 17 12 20 16 20 10 7 9 6 6 6 6 4 3 4 14 16 5 8 11 10 5 8 12 18 21 21 22 24 21 21 19 18 20 19 20 22 24 23 26 25 23 20 15 12 15 15 14 13 13 14 14 15 14 12 10 10 7 8 7 7 12 12 11 12 8 8 8 8 9 7 6 9 5 5 6 8 8 7
14 4 10 10 13 18 15 20 16 20 27 4 8 10 8 5 4 4 6 7 4 7 15 14 7 8 7 7 4 8 7 14 11 9 11 14 15 17 17 22 23 24 21 24 20 18 20 19 15 13 16 17 13 10 8 8 9 11 13 13 13 12 10 8 8 7 7 6 10 13 12 13 12 10 13 11 7 7 7 10 6 7 6 7 8 7
10 8 10 14 11 14 11 17 9 19 14 7 9 11 5 10 10 4 8 7 9 13 15 12 6 5 9 9 5 6 8 17 26 23 21 20 21 21 18 18 20 22 20 21 20 18 18 16 14 14 15 16 15 10 9 9 8 9 9 11 13 11 10 8 9 8 7 9 8 10 11 13 14 14 13 14 12 10 11 9 9 6 9 7 8 6
11 11 8 10 10 17 13 10 11 5 9 12 7 9 8 11 9 11 7 7 9 15 9 2 8 5 5 9 7 11 5 15 22 30 34 30 26 21 20 22 23 21 17 18 16 16 17 18 16 17 15 16 15 15 12 8 8 8 9 11 12 11 7 7 7 7 6 6 8 12 12 11 13 13 12 11 10 8 12 10 9 9 10 8 9 6
17 9 6 11 8 12 12 14 8 6 6 13 12 9 8 7 7 6 9 9 8 13 7 3 4 6 8 9 8 16 12 17 17 19 25 31 26 24 22 23 21 17 11 13 17 18 17 16 14 16 15 15 13 12 11 8 9 9 9 9 10 9 8 7 7 8 7 6 7 9 12 12 13 12 12 10 12 8 11 10 10 10 11 9 9 7
5 14 15 8 14 8 14 17 18 14 14 18 10 19 15 15 16 11 10 11 13 13 7 8 9 10 5 9 17 11 8 14 10 13 16 17 18 17 16 16 16 16 14 20 19 18 17 14 14 15 14 13 12 11 9 8 9 10 11 10 10 10 9 9 8 8 7 7 7 7 9 12 10 12 10 9 11 12 11 9 10 8 8 11 7 10
7 17 16 10 6 2 9 7 8 7 4 4 8 13 14 13 14 12 12 9 5 5 4 10 6 2 6 4 10 10 12 13 14 16 18 21 22 25 22 22 26 26 17 10 8 10 9 8 5 6 9 10 12 10 7 7 10 11 11 10 9 11 9 9 9 8 8 8 9 8 9 9 10 10 10 8 7 8 10 9 12 9 7 8 8 5
4 16 7 11 2 4 12 6 8 11 12 8 8 9 14 11 17 10 3 2 5 10 4 4 4 4 10 8 14 11 12 13 17 17 15 15 19 20 27 28 24 22 19 12 14 12 7 6 5 5 5 10 12 10 7 5 7 11 13 13 11 10 8 9 8 9 7 9 9 8 8 9 9 11 10 11 8 8 6 9 9 11 8 7 7 7
8 15 9 7 18 13 4 6 3 5 12 14 7 13 5 6 11 14 13 8 7 9 11 4 8 3 9 9 11 12 10 13 16 17 17 15 14 10 7 8 13 14 8 10 14 11 9 8 8 8 9 9 12 10 8 8 7 8 9 10 10 10 11 7 8 8 8 10 9 9 8 8 10 11 9 10 10 8 10 6 6 7 9 8 7 9
7 16 16 7 9 12 7 3 8 4 2 12 12 8 10 9 9 8 13 4 6 8 8 5 2 3 6 7 7 7 5 11 14 15 19 20 21 22 16 9 9 11 10 8 11 10 9 8 8 10 9 10 12 11 10 10 10 9 9 14 13 10 8 9 7 6 8 8 8 8 9 9 9 8 9 9 10 10 12 10 8 9 10 7 6 9
4 9 19 8 3 6 7 11 6 10 9 2 6 5 3 12 7 9 17 12 16 6 6 5 4 10 7 6 4 9 8 8 10 16 19 24 22 13 10 12 11 9 6 9 10 10 11 9 10 11 11 12 13 13 10 10 11 11 15 17 15 12 12 12 8 10 14 9 8 8 7 5 7 8 11 11 12 11 12 13 10 7 7 9 6 7
4 4 13 12 9 6 8 9 4 6 4 8 7 7 4 6 7 10 4 6 11 16 12 14 8 11 7 4 9 13 6 10 19 23 17 12 10 14 17 17 14 9 11 12 11 9 11 10 10 13 13 13 12 13 13 12 13 13 11 12 14 15 12 13 12 17 18 16 17 15 10 6 6 9 9 10 13 13 10 11 11 9 9 6 6 7
7 3 9 11 11 5 8 8 6 8 8 9 8 6 3 2 7 6 11 4 5 11 13 15 14 10 9 7 7 3 4 9 11 22 21 15 15 18 15 15 14 13 12 12 13 15 13 13 14 14 14 14 16 15 14 16 14 12 12 13 12 14 14 14 13 17 19 18 16 15 11 10 7 6 8 10 12 13 11 10 10 7 5 6 5 6
5 8 6 4 6 5 4 5 3 15 21 14 13 7 4 4 10 8 8 7 5 5 10 7 14 7 7 6 5 6 7 10 10 12 17 18 16 16 14 14 12 13 14 14 14 14 19 20 17 15 16 15 15 13 13 14 19 18 15 12 12 17 13 13 13 16 18 19 18 16 16 16 13 6 7 8 7 8 10 10 9 7 9 6 6 4
8 8 5 7 9 8 6 5 9 9 11 11 9 6 8 6 5 11 10 11 14 4 4 5 7 8 5 6 5 6 10 10 14 13 11 18 16 14 14 13 14 15 15 14 14 12 14 13 13 16 15 16 14 12 10 11 12 14 15 14 14 15 14 12 13 16 18 18 20 19 14 10 8 7 11 12 11 10 8 10 9 6 7 7 6 8
14 8 8 4 8 9 13 14 11 10 10 9 8 6 4 4 6 3 6 4 9 5 9 14 13 8 3 5 7 8 10 12 12 12 11 14 10 12 11 11 13 14 15 14 14 11 10 12 13 13 13 14 15 14 13 14 14 19 18 13 13 12 12 16 15 15 17 17 16 11 9 7 8 8 7 7 8 10 9 9 9 7 8 8 8 7
10 5 7 7 12 12 10 9 11 6 3 6 6 5 6 11 6 4 4 5 9 4 6 11 9 6 6 4 7 9 11 11 8 14 15 12 11 11 13 12 13 14 14 12 12 12 13 13 11 11 9 10 9 9 11 11 12 9 11 13 14 16 15 13 12 13 16 20 20 15 13 12 9 10 8 7 7 10 11 11 10 10 8 10 11 8
10 5 6 8 12 10 9 11 7 7 5 8 4 7 5 3 5 10 9 11 4 3 6 5 11 15 14 12 11 10 9 10 8 7 17 12 12 11 11 13 15 16 16 17 16 15 16 15 15 13 11 12 12 12 11 11 11 10 13 10 8 9 12 12 14 17 19 17 16 16 12 14 15 10 10 7 5 3 6 11 11 11 11 8 10 9
9 10 8 5 8 4 5 6 6 3 7 3 5 7 8 5 5 10 10 4 9 10 4 5 9 19 15 14 12 11 8 9 9 10 11 12 12 13 12 15 17 20 18 20 21 20 17 14 15 15 13 13 13 13 13 12 11 12 11 11 10 9 10 12 12 14 19 21 15 13 13 17 14 14 11 7 5 2 3 6 9 10 9 7 8 9
8 10 5 3 6 10 13 12 7 12 8 9 11 9 11 10 6 8 2 3 8 8 11 8 7 10 10 10 9 8 8 12 14 13 13 13 15 15 16 19 19 18 18 21 18 18 18 17 14 14 14 14 13 13 13 13 12 12 11 10 9 8 9 7 10 10 11 12 15 15 14 14 13 14 14 8 7 3 3 4 4 4 2 4 5 6
14 5 2 5 8 16 15 14 12 14 10 14 13 12 11 10 15 17 13 7 12 11 10 17 14 11 11 11 13 13 13 15 15 12 15 17 16 16 18 17 18 18 19 19 17 17 16 16 15 15 14 14 13 14 14 12 12 11 11 10 10 12 11 11 10 10 10 11 8 10 12 11 9 8 14 13 9 5 4 7 8 7 5 4 5 6
11 6 5 4 7 8 11 10 13 11 11 14 12 15 15 11 14 15 16 11 20 16 15 16 14 11 11 8 11 12 15 14 18 19 17 15 15 15 18 18 16 18 19 19 18 17 17 16 15 15 17 15 14 14 14 14 15 15 16 15 15 14 11 13 14 13 13 12 10 10 12 12 8 8 11 10 8 7 7 9 7 7 6 4 4 5
10 4 5 6 8 6 9 9 7 11 12 16 12 19 19 14 7 4 10 5 8 13 11 15 13 10 6 9 12 14 14 15 18 15 15 14 12 13 17 16 16 17 17 18 17 14 14 16 16 16 15 15 17 17 16 17 18 20 19 19 20 18 17 18 16 14 13 12 11 10 12 11 8 8 8 9 6 8 9 8 7 8 7 6 6 4
7 13 9 6 10 4 5 11 12 12 10 10 12 15 14 8 5 5 7 8 5 21 23 18 12 8 8 8 17 15 15 16 16 14 13 15 13 14 17 16 16 16 15 15 16 14 13 14 15 14 14 14 17 19 18 18 21 20 19 21 18 20 21 20 19 19 19 17 16 13 12 12 13 12 14 13 11 8 9 9 10 11 10 10 7 6
4 12 8 6 10 6 9 8 4 8 11 12 5 6 4 7 4 7 7 9 11 8 7 13 16 13 12 13 14 14 15 15 14 14 14 11 12 18 18 16 15 14 14 15 15 13 11 14 15 16 16 16 16 17 15 18 20 18 17 18 19 21 20 21 21 21 19 19 18 17 17 16 16 16 13 12 11 11 11 10 10 9 6 8 9 8
7 7 6 5 12 8 4 8 7 4 8 3 4 7 5 11 17 19 14 14 11 16 22 22 21 19 17 14 14 15 13 15 16 17 16 16 13 12 17 14 15 14 15 13 14 14 14 14 14 16 19 18 15 15 17 19 16 15 18 17 21 19 20 20 21 21 19 19 17 18 18 17 18 17 15 15 14 15 14 12 9 9 7 6 7 8
8 11 8 9 8 7 6 7 11 8 2 4 7 7 4 3 3 6 17 14 12 9 16 24 18 17 16 17 15 14 16 11 15 17 16 14 14 12 16 16 13 13 15 14 13 14 15 15 15 15 15 15 17 18 18 16 13 19 17 16 19 18 19 19 21 19 18 19 18 18 16 16 16 15 15 15 15 16 15 14 13 13 8 6 5 4
12 9 9 7 3 10 6 5 5 3 3 7 7 9 11 7 9 6 7 5 7 5 8 23 19 17 16 15 15 15 12 15 20 18 14 13 11 11 12 14 12 11 11 13 13 13 12 13 15 14 17 19 18 18 17 13 15 18 20 21 19 19 20 22 22 19 18 17 16 16 15 15 15 15 15 15 16 16 14 13 14 14 13 12 12 11
3 6 7 10 4 7 11 10 9 5 11 4 3 8 2 4 3 3 5 3 4 8 7 20 22 18 16 15 14 15 11 20 17 9 9 10 11 12 12 10 10 10 11 13 14 14 14 13 12 13 16 16 17 14 13 15 15 20 22 20 19 21 22 23 20 17 17 17 15 15 15 14 14 14 14 15 15 12 10 9 9 11 10 12 11 12
13 12 8 11 8 7 7 11 9 11 6 2 7 8 7 2 3 2 7 4 5 12 5 13 21 17 19 21 19 10 8 11 7 7 7 7 7 9 10 10 11 12 13 14 14 13 13 11 10 10 12 15 17 14 11 11 16 23 22 19 18 19 22 20 17 17 16 14 13 13 13 13 15 14 14 13 12 11 12 12 11 7 7 9 9 10
17 12 11 13 7 5 9 9 8 7 7 2 7 11 15 6 1 5 7 11 10 14 12 12 20 19 15 12 8 3 4 18 16 12 10 8 8 9 10 9 11 11 9 9 10 10 9 9 11 13 15 18 15 12 13 13 20 22 20 18 17 21 19 16 14 12 11 11 12 12 13 14 15 15 15 14 12 12 12 10 12 15 14 13 12 12
12 11 13 7 4 8 8 5 6 4 4 5 9 16 15 7 4 6 11 8 10 13 13 10 13 14 12 10 5 5 5 8 14 15 12 8 8 8 9 9 10 9 10 10 12 10 13 12 13 16 15 14 12 12 13 15 21 21 18 18 21 20 16 13 12 13 12 12 13 14 15 15 15 16 15 13 12 11 13 14 14 13 14 13 12 12
8 4 4 6 11 5 2 8 5 3 2 8 13 12 11 4 7 10 5 3 13 15 11 13 14 10 6 5 7 13 16 21 19 15 11 7 8 8 10 11 12 11 9 9 9 11 13 13 14 16 16 14 14 14 14 17 21 18 18 19 19 13 10 12 12 12 13 15 15 15 15 16 15 14 13 13 14 15 15 14 14 15 14 14 14 15
6 9 3 5 4 5 8 8 5 7 6 13 20 8 6 5 5 2 4 7 8 16 15 13 11 7 10 13 13 18 20 16 15 14 11 10 10 10 10 10 11 11 10 11 11 8 12 14 15 15 14 12 11 11 12 16 17 16 16 18 11 8 9 9 10 12 13 15 16 15 16 15 16 16 14 15 14 14 13 12 14 13 14 14 13 14
4 10 4 4 5 4 5 5 5 7 12 15 8 3 5 4 2 2 9 10 8 13 14 13 7 9 15 17 18 16 15 15 12 11 11 10 9 9 9 9 10 10 10 9 9 8 11 15 14 15 12 12 11 11 11 15 15 14 16 13 6 7 8 9 10 12 14 14 14 15 15 14 14 14 13 14 14 14 14 15 13 12 13 12 13 14
15 7 5 10 7 8 4 5 2 2 8 8 6 6 5 7 7 5 13 10 13 10 7 15 13 11 15 19 17 16 16 9 11 10 13 9 9 10 11 9 9 9 9 10 10 10 11 14 13 14 12 11 10 10 11 11 16 15 14 7 6 8 9 9 10 12 13 12 12 13 12 13 13 12 12 12 12 13 13 13 13 14 13 13 13 12
3 8 4 16 11 10 14 7 2 4 4 9 10 8 10 10 9 10 15 17 11 10 10 16 13 16 15 15 21 13 13 12 13 10 10 8 9 8 9 11 10 8 9 9 9 10 10 12 13 13 12 11 9 11 11 12 13 14 7 5 7 8 8 9 10 11 10 10 9 9 9 10 10 10 10 11 11 10 9 8 10 11 12 11 10 9
5 4 8 13 6 7 6 4 7 5 5 8 11 11 12 12 11 11 16 15 14 16 18 16 15 13 14 14 16 17 13 12 13 10 10 9 9 8 10 11 8 9 9 9 6 8 11 10 11 10 8 8 8 10 10 9 10 8 6 7 6 7 8 9 9 9 9 9 8 7 7 7 7 9 9 9 9 9 9 9 8 8 9 9 9 9
6 4 16 6 6 8 7 2 2 4 5 8 7 10 13 13 14 13 15 14 16 16 16 14 14 15 11 14 11 13 11 9 12 9 9 8 9 10 10 10 9 8 6 7 6 8 7 9 7 7 6 5 4 5 6 6 5 4 4 3 4 5 7 8 8 9 7 8 6 6 5 6 5 6 8 8 7 9 10 9 7 8 9 9 9 9
4 6 4 3 11 7 6 4 2 6 9 8 7 7 7 8 13 13 12 14 14 16 14 13 11 9 10 10 9 12 11 6 7 8 8 7 6 6 7 9 9 9 7 7 6 8 9 6 7 6 6 4 2 4 5 4 3 3 4 4 4 5 6 5 4 6 6 6 6 6 5 5 6 5 7 7 7 7 6 6 9 9 9 7 6 6
9 9 4 12 13 4 9 9 7 11 6 2 3 4 6 7 13 14 13 13 11 13 13 15 12 10 9 9 11 12 13 10 8 12 12 9 6 5 5 5 4 5 5 4 7 8 8 6 6 6 7 6 4 4 5 3 2 1 2 2 3 4 6 3 4 5 6 5 5 5 6 6 6 5 5 6 7 8 8 6 7 8 7 9 9 10
7 7 9 7 13 10 11 9 5 5 9 5 6 2 3 6 12 13 11 11 8 8 11 16 14 12 13 10 8 16 12 13 7 10 11 9 7 5 4 5 6 5 4 3 7 6 7 5 6 7 7 6 4 3 3 2 1 1 2 2 2 4 5 5 5 6 8 7 6 6 5 5 7 8 7 7 7 7 8 9 11 10 13 11 10 9
Wind_Speed
3 5 6 10 5 2 3 5 6 6 2 4 1 1 5 5 9 5 4 6 3 3 5 6 6 6 10 10 4 13 11 12 8 9 10 11 11 10 12 12 10 11 9 9 10 9 9 11 8 7 7 9 9 7 8 11 12 12 11 10 9 7 7 6 6 6 6 5 5 2 4 3 3 3 2 3 3 3 2 3 3 4 4 4 3 3
2 5 12 6 2 3 5 6 3 0 0 3 4 4 7 3 10 7 4 5 5 1 6 5 4 8 12 10 3 10 13 14 14 13 12 13 12 12 14 13 13 11 8 12 11 10 10 9 10 8 8 9 11 9 10 10 9 10 10 12 10 8 8 7 7 6 6 5 4 4 4 2 3 3 4 2 2 2 2 3 3 3 4 4 5 4
2 11 5 1 6 5 2 1 2 3 4 1 4 4 5 8 4 11 5 4 2 3 7 6 6 11 13 10 3 14 16 16 18 19 18 16 14 13 13 13 14 12 12 12 10 12 12 13 12 9 8 10 11 11 10 7 6 5 6 6 6 7 8 6 6 5 5 3 4 4 3 5 3 1 2 3 2 3 3 2 3 3 3 4 3 4
6 7 10 10 3 4 3 1 1 0 0 3 2 2 7 4 2 8 4 4 2 1 5 5 6 13 8 5 5 10 14 11 17 20 17 19 19 18 18 16 16 15 15 16 14 15 14 13 11 8 10 10 6 7 8 8 9 8 8 7 6 6 6 6 6 5 3 4 3 4 6 4 4 3 3 3 3 2 3 2 2 2 3 3 4 3
10 8 2 5 4 5 6 5 3 3 7 2 4 4 3 5 6 8 6 4 4 4 3 4 5 9 5 4 3 3 5 10 11 5 4 2 2 6 9 8 10 13 15 16 13 12 15 15 10 12 13 9 8 8 9 9 11 9 11 10 8 6 7 6 6 6 5 6 5 6 6 6 6 5 4 5 2 2 2 3 3 3 3 4 4 4
10 11 3 5 4 5 5 5 5 5 6 3 5 10 9 9 9 8 6 5 5 6 1 3 6 5 5 7 3 4 4 8 8 12 12 11 12 13 13 12 12 12 12 15 15 14 14 14 11 12 12 11 9 9 8 7 10 10 9 7 6 4 5 7 6 6 6 6 7 7 7 6 5 5 6 6 5 3 4 4 1 2 3 3 3 2
10 1 6 5 5 5 5 7 5 9 7 3 7 11 14 13 9 7 8 0 3 4 2 2 1 7 7 4 2 5 7 8 4 8 10 11 12 12 11 11 12 13 12 11 11 12 12 13 12 12 13 13 11 9 7 6 8 9 8 7 7 5 4 4 5 4 5 6 6 7 7 6 7 7 3 3 4 5 3 3 3 3 2 2 4 2
2 4 4 3 4 5 4 5 5 11 7 4 7 9 8 7 7 8 8 7 6 2 3 2 4 4 4 2 4 1 12 10 9 8 10 10 11 11 12 14 13 12 13 14 14 14 12 11 15 16 15 12 13 9 9 9 8 9 8 7 6 4 4 3 4 4 4 6 5 6 6 6 7 7 6 5 4 3 4 5 4 4 3 3 2 2
3 2 4 3 3 3 7 9 5 10 8 8 3 7 5 8 11 9 7 5 2 1 10 5 1 0 2 2 4 5 12 8 12 13 13 12 12 12 10 11 11 12 12 12 14 13 14 15 16 13 13 11 7 4 8 9 9 8 7 7 6 6 5 4 4 4 4 5 6 6 7 6 4 5 6 4 3 5 4 6 3 4 4 4 3 2
2 5 5 7 6 6 8 8 7 13 5 12 6 3 3 3 2 4 4 2 1 1 6 8 1 2 4 4 2 4 4 10 12 13 13 13 12 14 11 11 12 12 11 11 13 14 17 16 14 11 6 5 6 3 2 3 4 6 6 7 8 6 4 4 3 4 4 4 6 7 6 7 5 4 4 4 5 4 4 6 4 4 4 4 4 3
5 1 7 4 5 7 6 11 8 13 18 2 4 3 4 1 1 2 3 3 2 1 7 9 4 3 1 2 1 3 2 6 5 5 6 7 7 8 9 12 12 14 12 11 12 12 13 12 10 6 7 5 3 1 1 3 4 5 5 6 7 6 5 4 4 5 4 4 5 7 7 8 7 5 6 6 4 4 4 6 4 4 3 4 4 3
4 2 1 3 7 4 5 7 4 12 8 3 1 4 2 6 5 2 3 4 2 4 8 7 4 4 3 2 2 3 6 7 14 14 14 13 15 13 11 11 12 13 12 12 11 11 11 10 8 6 7 7 5 2 2 3 4 5 6 7 7 5 5 5 4 5 5 5 5 6 8 8 8 8 6 7 6 5 5 5 5 3 5 4 4 3
5 5 3 6 4 11 5 4 6 1 5 6 3 3 3 3 3 2 2 1 3 5 3 2 4 1 2 2 3 4 4 7 12 15 18 18 16 13 14 12 12 12 11 11 9 7 7 9 8 9 9 8 6 5 3 4 4 5 6 7 8 6 5 5 4 4 4 4 5 7 8 7 7 8 7 7 6 4 6 6 5 5 6 4 5 3
8 3 3 6 4 5 7 5 2 1 3 7 6 4 3 0 0 1 2 1 3 6 3 2 1 1 2 3 3 8 7 10 11 11 15 19 16 12 11 10 11 9 6 6 9 11 10 8 7 8 8 7 6 6 5 5 5 5 6 6 7 6 5 5 5 5 5 4 4 6 7 7 7 7 7 6 7 5 6 6 6 6 6 6 6 4
1 5 6 3 4 3 7 9 10 7 8 9 4 9 8 7 4 3 3 3 6 6 2 5 2 2 1 3 9 6 5 5 5 5 3 6 9 11 10 9 8 7 4 12 6 3 5 5 2 4 5 6 6 7 5 5 6 6 7 7 7 7 6 6 5 5 5 4 5 4 5 7 6 7 6 5 6 6 6 4 5 4 5 6 4 6
4 6 8 5 4 1 4 3 4 4 2 1 3 6 7 4 6 4 4 3 2 1 1 4 0 0 1 2 5 6 5 7 7 8 9 9 8 11 12 12 12 15 9 2 4 7 6 5 3 1 3 5 7 7 5 5 6 7 7 6 6 7 6 6 6 5 5 5 5 6 6 6 7 6 6 5 4 5 6 5 6 5 4 5 4 3
2 4 3 7 1 2 6 2 3 6 2 2 4 3 6 5 9 4 1 1 2 4 0 0 0 1 4 3 8 7 7 6 9 9 9 9 7 7 12 15 15 13 8 6 7 4 4 3 3 3 3 6 7 6 5 3 5 7 7 7 7 6 5 6 6 6 5 6 6 5 5 5 6 7 7 7 5 5 4 5 5 6 5 4 4 4
3 6 5 2 11 5 2 4 1 1 5 6 2 6 1 3 6 5 4 3 2 3 3 1 2 1 3 1 5 8 4 5 8 9 9 10 10 4 4 2 2 4 5 6 7 5 5 4 4 5 4 6 8 6 4 4 4 5 5 6 7 6 6 4 5 5 5 6 6 6 5 4 6 7 6 6 6 4 5 3 4 4 5 4 4 4
3 5 6 4 5 7 4 1 4 1 1 6 3 4 3 1 1 3 4 0 0 0 1 1 1 1 2 3 2 4 0 4 7 8 10 12 12 15 10 5 6 4 5 5 6 6 5 5 4 4 6 6 8 7 5 5 6 6 5 5 5 4 5 6 4 4 5 6 5 5 5 6 5 5 6 6 6 6 6 6 5 5 4 3 3 4
1 2 7 4 1 3 3 4 1 4 4 2 4 2 1 4 3 3 5 4 6 2 2 2 1 2 2 2 2 6 5 5 5 2 9 12 10 3 6 7 6 5 3 5 6 6 6 5 4 4 6 7 8 8 6 7 6 7 6 8 7 7 5 4 5 6 8 4 4 5 4 3 4 5 7 7 7 7 7 7 6 4 4 4 3 3
1 1 4 4 5 2 1 1 2 3 2 2 2 2 0 2 2 3 1 1 4 5 5 5 1 3 2 2 4 7 3 6 7 9 8 3 5 8 10 9 8 6 5 5 6 6 7 6 5 6 6 7 7 8 8 6 7 7 6 8 10 10 8 7 8 10 8 7 8 8 5 2 2 5 5 5 6 7 5 5 7 5 4 3 3 4
2 1 3 4 5 1 4 3 2 4 4 4 3 2 2 0 3 2 4 1 2 3 3 5 4 3 4 3 4 1 0 6 5 7 10 9 8 6 4 3 9 8 8 8 8 9 8 7 7 8 8 8 8 8 8 8 7 8 8 7 7 8 8 9 7 8 8 7 8 9 8 7 4 0 2 4 4 5 6 6 6 4 4 4 3 3
2 3 2 1 2 1 2 4 3 2 12 6 6 2 2 1 3 3 1 2 2 1 5 3 5 3 2 3 2 3 3 6 7 5 10 9 10 8 4 6 8 7 7 8 9 7 8 11 10 9 10 10 9 7 8 8 8 7 6 8 7 8 6 7 8 7 7 7 7 7 6 6 4 2 3 4 4 3 4 6 6 4 5 4 4 3
4 2 2 3 5 4 4 3 6 3 2 6 4 2 3 1 1 4 3 3 5 2 1 1 2 2 1 3 3 3 5 6 7 6 4 9 8 5 7 8 9 8 6 4 5 6 5 6 7 9 9 9 8 8 7 5 4 7 8 8 8 9 8 7 7 9 9 8 8 8 6 3 3 3 5 6 6 6 5 5 5 4 4 4 4 5
1 2 3 2 1 4 5 7 3 5 5 3 3 1 1 0 3 1 3 1 3 2 3 7 4 2 1 3 4 4 5 7 8 7 5 7 6 6 5 4 6 6 7 6 6 7 6 6 6 6 7 8 8 8 8 8 8 11 11 8 8 7 7 9 8 8 9 10 10 7 6 4 4 5 5 5 4 6 5 5 6 5 5 4 4 4
3 2 2 2 4 4 2 2 3 2 1 2 0 3 4 6 4 1 0 1 3 1 3 3 2 3 2 1 4 6 6 6 5 7 8 7 7 6 3 3 5 5 5 6 7 7 9 8 7 7 5 4 4 5 7 7 5 5 5 6 8 10 9 8 6 8 10 10 11 9 8 7 6 4 3 2 4 6 6 6 6 6 4 5 6 4
3 2 3 2 5 3 3 5 3 1 2 2 3 2 3 3 3 6 4 5 1 1 3 2 5 9 7 6 6 5 4 6 4 2 5 8 8 6 5 7 8 9 10 11 10 9 10 9 10 8 6 7 7 7 7 7 6 6 7 5 3 4 4 4 6 8 10 11 10 8 8 8 9 6 4 4 3 1 1 4 5 5 6 5 5 5
4 4 4 3 4 0 3 3 4 1 3 2 3 5 6 2 3 6 4 1 5 5 2 2 3 9 9 8 6 5 5 6 6 5 5 7 7 7 7 8 13 13 12 12 13 13 11 9 8 10 7 7 6 7 8 7 7 7 7 6 5 5 4 4 5 8 10 11 7 6 8 9 5 7 6 4 3 1 1 2 3 4 4 4 4 5
3 3 2 1 3 4 7 7 4 6 5 4 6 6 7 8 3 5 1 1 5 3 5 5 4 5 6 6 5 4 5 8 9 8 8 8 8 9 10 12 12 11 11 13 10 11 11 10 9 10 9 6 7 8 8 8 7 7 7 6 5 5 3 1 3 5 5 6 9 9 8 9 8 7 7 5 4 2 1 1 1 1 2 3 4 4
5 3 1 1 2 9 10 9 8 5 4 7 8 9 7 7 8 11 7 2 2 5 6 10 10 6 4 6 6 6 7 9 9 8 9 10 9 10 10 11 11 10 11 11 11 10 10 10 9 9 9 8 8 9 9 7 7 7 6 6 6 6 5 5 6 6 6 5 4 5 5 5 5 3 7 8 6 3 3 4 4 3 3 3 4 4
4 1 1 1 4 5 7 6 8 8 3 7 7 10 10 8 5 6 9 6 11 10 9 10 10 5 4 3 6 6 8 8 10 12 11 9 8 9 11 11 10 10 11 10 11 11 11 10 10 9 11 10 9 9 9 9 9 9 9 8 8 8 7 8 8 7 7 7 5 6 6 5 4 5 5 7 5 5 4 4 4 4 3 2 2 1
4 1 2 2 4 1 5 6 5 8 5 7 7 13 12 9 3 2 2 1 3 8 6 10 5 2 2 4 7 8 9 9 11 9 9 8 8 8 11 10 9 10 10 11 11 9 8 10 10 11 10 10 11 11 10 10 10 11 11 11 11 10 10 11 10 9 8 7 7 6 6 5 5 5 5 5 4 3 3 3 4 4 3 4 4 2
2 5 3 3 5 1 2 7 6 6 4 4 6 8 8 4 3 1 3 5 1 9 13 9 5 4 5 2 9 9 10 10 10 8 7 9 8 9 11 10 9 10 9 9 10 9 8 10 10 9 9 9 10 12 11 11 12 12 11 12 10 11 12 12 11 12 11 10 10 8 7 7 8 7 7 5 5 5 5 6 6 6 6 6 3 3
2 6 3 1 4 2 4 3 2 3 2 3 2 3 2 3 3 4 4 5 8 5 2 5 8 8 8 7 9 9 10 9 8 8 8 6 6 11 11 10 9 9 9 10 10 8 7 7 8 9 11 11 11 11 9 11 12 10 10 11 11 13 12 13 12 12 11 11 11 10 9 9 10 9 8 7 7 7 6 6 5 4 3 2 3 4
5 4 2 2 4 2 2 3 3 0 2 0 2 4 3 7 11 11 9 10 8 9 14 13 11 11 10 9 8 10 8 7 10 11 10 10 8 6 10 10 10 9 9 8 9 9 9 9 9 10 12 11 10 8 9 11 10 9 11 10 12 11 12 12 13 12 11 11 9 9 9 10 10 9 8 8 9 9 9 8 6 5 3 3 3 3
4 6 2 4 3 2 2 2 2 2 1 3 3 4 2 1 1 2 9 9 8 5 9 13 11 10 10 11 8 8 10 4 10 11 10 9 9 8 9 9 9 8 10 9 9 8 9 10 9 9 10 9 10 10 10 9 8 11 10 10 11 11 11 12 12 11 11 11 10 10 9 10 9 9 8 8 9 10 9 8 7 7 5 3 3 2
7 4 4 2 0 3 2 2 1 1 1 3 3 4 4 2 4 3 2 3 4 1 4 13 12 11 10 9 9 8 8 8 11 9 9 8 7 6 6 7 8 7 7 8 8 8 8 8 9 7 8 12 11 10 9 7 8 10 12 12 11 11 11 12 12 11 10 10 10 10 9 9 9 9 9 8 10 9 8 7 8 7 5 6 6 6
1 3 3 4 1 3 5 4 2 0 3 1 1 4 0 2 2 2 1 2 2 5 4 12 14 11 10 9 8 9 6 11 9 5 5 6 7 7 7 7 7 7 7 8 9 9 9 9 8 8 10 11 11 9 8 9 9 12 13 12 11 12 12 13 11 9 10 10 9 9 9 9 9 9 8 9 9 7 5 5 4 6 5 6 6 7
8 7 4 5 3 3 3 4 2 4 0 1 4 5 4 1 2 1 2 1 2 5 3 7 13 11 12 12 10 6 3 5 4 2 2 4 5 4 5 6 7 7 6 7 8 8 7 7 6 6 8 10 11 9 7 7 10 13 13 11 11 11 13 11 10 10 9 9 8 8 8 8 8 8 8 8 7 7 7 7 6 4 4 6 5 5
10 6 5 6 3 2 3 3 2 0 1 1 5 7 9 4 0 2 2 4 5 7 5 7 13 12 9 8 5 1 1 9 7 5 4 3 5 7 6 6 8 7 6 5 6 6 6 6 8 9 10 11 10 7 8 8 12 14 12 11 10 12 11 9 8 7 7 7 7 7 8 7 8 8 8 7 6 6 6 5 6 7 6 5 5 5
5 4 6 3 2 5 5 1 3 1 1 3 6 11 10 5 1 2 4 2 4 8 6 4 8 8 8 6 3 2 2 5 8 9 7 5 5 6 5 5 6 5 6 7 7 7 8 7 7 9 9 8 8 7 8 9 12 12 10 10 11 11 8 6 5 6 6 6 6 7 7 6 7 8 8 6 5 4 5 6 6 6 7 7 6 6
4 1 1 3 6 3 1 4 1 0 0 4 8 8 7 1 2 3 1 1 8 8 5 6 8 5 4 3 2 6 8 12 12 10 7 5 5 5 7 7 8 7 6 6 7 8 8 7 8 9 8 7 7 7 7 9 11 10 9 10 10 7 5 5 5 5 6 6 6 6 7 7 7 6 6 6 7 7 7 6 6 6 6 5 6 7
2 2 1 2 1 1 3 3 1 1 1 7 13 5 2 1 1 1 1 4 5 10 10 7 6 4 4 7 8 11 13 10 10 9 7 6 7 7 7 7 7 7 6 7 7 5 7 8 8 8 7 6 6 6 6 10 11 10 9 11 7 4 5 5 6 7 7 7 7 7 7 7 8 7 6 7 7 7 8 7 8 8 8 8 8 8
1 3 1 1 1 0 2 2 1 3 6 9 4 0 2 0 1 0 3 5 3 7 9 7 3 4 8 10 11 10 10 9 7 6 7 6 6 6 6 6 6 7 7 5 5 5 7 9 8 8 6 5 5 5 6 8 9 9 9 8 3 4 5 6 6 7 8 8 9 9 9 8 8 7 7 8 7 7 8 8 7 6 6 6 6 6
7 2 1 4 3 2 1 2 1 1 5 5 2 2 2 3 4 3 7 6 6 3 3 6 7 7 9 12 10 9 9 5 6 6 7 5 6 6 7 6 6 6 6 6 6 6 7 8 8 7 6 5 6 6 6 6 9 9 9 4 3 5 5 6 7 7 8 8 8 8 7 8 8 7 7 7 7 8 8 8 7 7 7 7 7 6
1 4 3 5 3 4 5 3 1 2 2 4 5 4 5 6 6 6 8 9 5 5 5 8 7 8 9 10 12 7 7 7 8 6 5 4 6 5 6 7 7 6 6 6 6 6 7 7 7 7 7 6 6 7 6 6 7 9 4 3 4 4 5 5 6 7 6 6 6 6 6 7 7 7 7 7 7 6 5 5 6 6 7 6 6 6
2 0 3 5 1 3 2 2 4 3 3 5 6 7 7 7 6 6 9 8 8 9 10 9 9 8 8 9 10 10 9 8 8 6 5 5 5 5 6 7 5 5 6 5 4 5 7 6 6 6 5 6 5 6 6 6 6 5 4 4 4 4 5 5 5 5 5 5 5 4 4 4 5 6 6 6 6 6 5 5 5 5 5 6 6 5
2 2 7 3 3 3 2 1 1 2 2 4 4 6 8 8 9 8 8 9 10 10 10 9 9 10 7 8 7 9 7 6 8 5 5 4 6 6 6 6 6 5 4 4 4 5 5 6 5 4 4 3 3 4 4 4 4 3 3 3 3 4 5 5 5 5 4 5 4 3 3 4 5 4 5 4 4 6 6 6 5 5 5 5 5 5
2 3 1 0 4 2 3 2 1 4 6 5 4 5 4 5 8 9 8 8 8 10 9 9 7 5 6 7 5 7 7 4 4 4 5 3 4 3 4 5 5 5 5 5 4 5 5 4 4 4 4 3 1 2 3 2 1 1 1 1 0 2 4 3 3 4 5 4 4 4 3 3 3 3 5 4 5 4 3 4 6 6 6 4 3 3
3 4 0 5 5 1 4 3 3 3 1 0 1 3 4 4 8 9 9 8 7 8 8 10 8 6 6 4 6 7 9 6 5 7 7 5 3 3 4 4 3 4 3 3 3 5 5 4 4 4 5 3 1 3 3 2 1 0 1 1 1 1 3 2 3 4 4 3 3 3 3 3 3 3 3 4 4 5 5 5 6 6 4 6 8 8
2 4 4 3 4 3 6 5 3 2 4 3 3 1 3 4 8 8 7 7 5 5 7 10 9 8 8 6 4 10 8 8 5 6 7 5 4 3 3 4 4 4 3 2 4 4 4 4 4 5 5 3 2 1 1 1 0 0 1 1 1 2 3 3 3 4 4 3 4 3 3 4 4 5 5 4 4 5 4 5 6 9 11 10 8 7
Wind_Direction
123 189 214 222 227 154 208 191 200 214 264 292 337 228 258 266 283 273 263 252 295 310 252 261 264 253 264 258 194 176 176 190 171 159 173 175 169 162 168 174 153 151 153 146 151 153 150 156 160 156 159 173 178 164 169 174 176 175 178 164 159 156 162 163 164 153 151 154 151 133 158 173 165 143 112 102 105 115 137 143 137 136 144 148 144 137
118 215 237 224 157 176 209 204 189 274 329 245 284 291 286 249 267 276 291 311 286 232 288 274 299 271 256 264 187 168 158 183 183 181 179 177 175 171 172 165 153 143 132 141 151 148 137 151 169 166 173 182 174 176 181 182 178 177 178 177 162 148 160 172 170 151 150 161 166 143 163 143 121 116 120 107 131 152 140 138 138 133 137 136 136 136
196 223 253 163 202 202 246 184 154 191 251 248 218 274 292 272 267 280 270 261 277 122 256 275 270 271 263 255 145 167 172 185 187 180 183 171 168 175 177 162 150 138 144 142 147 142 148 164 173 170 186 199 187 174 177 165 152 157 176 197 163 155 158 161 150 138 148 139 149 142 142 127 100 74 124 128 141 144 155 126 113 121 125 126 122 131
264 271 244 232 170 178 262 227 172 139 103 220 273 248 251 273 336 302 296 294 305 198 273 293 284 273 288 272 174 190 174 186 193 189 177 172 171 178 179 167 151 140 147 149 153 156 158 170 171 174 197 204 177 172 166 161 159 157 170 195 187 160 142 140 145 143 125 131 118 104 127 112 121 154 108 81 96 105 100 103 108 113 133 131 127 135
224 242 147 160 165 168 225 237 181 194 259 240 192 211 251 276 240 204 277 334 312 304 266 287 323 301 305 288 94 218 194 172 195 170 135 129 137 115 106 127 134 144 151 148 156 160 161 172 172 182 200 198 185 177 178 167 169 171 179 188 183 162 140 136 143 137 133 116 93 93 81 92 76 66 89 100 69 107 132 104 114 148 135 131 134 148
255 251 99 110 167 178 198 255 219 162 235 285 223 198 216 232 254 266 275 323 7 322 317 119 357 306 290 290 138 168 116 179 169 161 173 168 153 150 149 140 134 149 158 158 163 169 167 169 167 188 201 208 201 181 185 178 173 171 178 175 172 149 127 139 144 138 134 137 132 128 129 132 121 126 131 143 155 150 139 159 163 104 129 125 119 139
228 165 162 182 173 195 194 214 215 161 206 222 266 195 213 226 233 253 270 205 296 272 279 60 99 271 326 313 143 164 153 155 163 170 162 157 154 152 151 152 150 156 160 158 162 166 163 171 172 189 199 207 207 193 164 172 179 180 169 166 168 155 137 126 129 116 116 122 143 151 151 146 148 144 169 140 143 135 141 121 115 124 106 130 133 131
192 189 182 171 170 184 203 249 214 160 162 232 236 177 200 213 223 232 226 209 240 270 275 88 147 186 300 350 353 132 139 147 152 160 160 163 154 149 157 161 160 161 161 158 163 172 173 171 182 190 201 200 209 190 163 174 175 177 165 158 156 141 136 127 123 112 134 145 150 137 134 141 142 148 154 148 126 105 125 101 104 106 88 68 79 99
171 229 178 195 167 166 215 219 192 154 149 224 221 160 203 208 213 215 198 199 232 64 289 327 353 76 253 274 352 94 104 148 163 167 168 161 156 157 151 155 156 158 165 166 166 169 171 182 192 197 200 204 208 196 184 176 170 164 157 149 141 142 146 140 133 131 152 151 149 141 136 130 139 136 136 120 103 108 106 98 81 95 94 83 68 73
280 194 197 181 156 215 233 242 154 166 184 254 212 168 214 215 200 184 164 129 311 93 275 278 198 194 288 286 20 5 102 158 178 177 172 166 162 162 152 156 161 163 168 179 173 172 180 187 194 199 193 186 206 206 180 129 135 150 151 148 146 147 144 139 135 144 155 150 140 139 144 139 131 117 105 110 111 111 110 105 98 101 97 95 66 46
242 280 159 130 200 215 229 242 178 178 208 96 146 192 231 55 35 21 75 109 73 294 253 245 245 156 283 265 105 69 207 194 154 153 149 150 144 156 157 160 166 171 167 174 180 182 185 188 191 183 191 203 204 177 107 116 130 143 144 140 144 149 135 140 155 147 152 150 163 149 149 143 138 143 136 118 104 109 106 115 127 123 104 84 86 65
321 295 252 231 205 232 200 262 195 196 214 167 155 192 235 278 12 53 347 40 132 267 258 251 190 166 158 280 275 226 283 193 173 166 168 170 170 169 168 171 174 169 164 176 185 189 186 180 175 166 190 201 207 164 129 123 123 137 137 139 146 152 147 150 153 145 147 159 171 151 148 147 148 148 145 142 145 149 132 130 122 106 87 75 72 67
291 244 233 293 217 207 219 218 308 107 162 149 85 47 141 260 30 295 21 228 196 202 246 328 178 101 200 217 271 322 263 222 196 176 177 174 172 170 174 172 168 164 170 178 183 183 191 189 168 170 185 192 196 195 160 117 115 122 129 144 152 159 148 144 145 144 148 155 156 154 149 147 146 146 145 142 143 155 134 133 123 115 113 113 89 83
276 279 304 276 312 217 155 181 218 92 181 137 169 147 97 179 45 251 276 204 307 281 239 255 284 186 250 285 326 321 276 225 209 202 184 175 170 164 161 159 160 163 156 170 189 191 188 185 171 172 179 178 181 196 166 139 122 121 132 143 154 156 147 139 145 140 142 149 151 154 144 143 144 144 142 145 143 155 141 141 139 139 144 140 143 141
353 335 288 179 264 232 160 190 185 178 169 194 145 148 175 143 162 237 208 197 205 202 277 305 116 241 157 265 336 306 306 168 172 164 133 122 109 105 89 76 52 17 198 208 197 224 196 168 146 172 159 158 171 191 181 152 131 124 137 150 150 151 148 147 146 133 137 133 132 132 134 134 134 135 132 140 145 147 140 141 131 136 138 136 158 144
199 204 253 217 235 15 228 220 145 106 103 203 162 83 84 223 137 210 202 165 214 200 32 356 145 170 162 270 341 351 46 71 96 113 118 126 129 118 114 122 174 203 213 182 56 34 14 20 59 80 131 142 164 183 185 150 136 131 140 148 149 155 149 145 139 138 136 131 130 129 132 132 128 124 118 116 131 145 144 152 143 151 150 145 141 145
12 268 268 309 262 215 256 159 242 129 193 251 107 167 210 174 128 81 40 39 92 58 7 212 1 334 305 359 15 355 71 101 121 122 123 135 127 117 156 179 184 194 189 79 60 57 58 70 89 117 125 137 152 168 173 146 130 132 137 148 144 140 135 139 142 139 128 124 123 126 127 128 122 126 132 140 149 151 154 147 150 146 156 142 139 148
153 250 281 22 302 290 220 202 182 197 148 91 143 243 110 78 119 129 193 338 63 163 250 38 200 275 46 241 336 343 102 126 136 135 123 122 110 126 237 263 55 44 73 88 83 76 82 90 116 129 122 135 142 136 121 103 91 102 123 141 136 134 132 128 126 123 121 118 122 129 130 137 139 134 134 140 146 152 137 130 123 122 133 155 158 145
135 288 298 277 246 265 346 89 1 330 6 159 196 197 110 268 239 319 94 85 124 189 241 0 292 258 155 243 337 302 18 158 154 145 142 150 168 176 175 119 77 77 59 70 95 102 118 131 141 136 120 124 118 108 102 93 90 86 92 86 83 102 115 122 108 103 99 111 124 133 143 145 130 124 132 143 150 157 156 152 145 153 152 133 138 133
61 190 298 289 195 319 5 66 221 294 326 25 120 61 309 104 162 138 202 171 113 201 78 282 67 210 225 223 286 278 290 357 347 283 176 171 172 117 77 84 67 43 354 80 101 119 117 119 115 112 116 117 118 113 111 111 104 95 99 105 117 118 111 94 91 74 53 37 82 84 86 92 123 135 148 156 161 168 169 160 142 136 144 168 154 148
154 138 238 278 313 23 318 344 198 180 133 356 100 311 34 8 200 108 60 106 164 165 176 152 229 273 264 236 271 272 306 59 57 16 342 331 88 105 121 131 138 139 116 84 87 93 106 92 80 82 78 79 78 98 99 87 115 130 142 147 145 133 120 104 99 97 110 107 89 84 77 68 111 151 159 156 171 169 167 144 133 158 162 127 158 145
82 68 197 304 347 341 233 253 199 154 138 139 146 107 200 134 115 157 254 23 78 100 189 134 227 272 269 334 313 329 133 89 64 61 23 12 26 41 38 106 106 112 109 107 94 95 84 84 91 94 90 93 94 99 106 108 136 156 164 147 116 110 117 117 104 108 117 122 125 126 141 143 123 99 149 159 182 167 149 136 140 149 138 165 171 152
140 161 102 294 223 210 248 337 4 335 102 110 109 27 146 129 106 97 129 267 44 58 112 144 113 274 263 316 325 49 75 84 56 36 92 67 32 11 40 82 77 82 101 117 117 113 122 129 125 117 114 115 116 115 119 141 167 154 107 77 86 102 102 106 118 121 120 123 128 140 152 147 138 130 157 150 165 138 135 145 142 148 162 167 166 168
85 62 31 302 311 302 323 335 325 303 335 56 17 84 73 10 245 178 167 183 139 188 93 17 67 252 292 19 344 69 92 80 65 41 46 92 97 56 28 39 53 50 57 63 72 85 95 104 114 115 111 107 110 112 111 128 131 78 74 100 118 122 116 109 131 139 139 139 145 149 148 134 110 156 167 166 168 155 156 155 144 147 167 170 168 165
101 304 115 51 9 338 342 336 349 344 43 91 120 51 31 243 87 177 112 71 101 222 171 123 207 236 274 26 48 68 94 89 87 66 59 71 68 78 94 90 113 108 104 102 99 100 97 93 98 109 119 123 127 122 123 126 131 139 139 126 116 118 131 143 154 150 145 143 142 140 133 126 144 162 182 180 177 153 155 153 149 162 173 166 182 177
97 204 102 132 157 164 218 253 261 270 272 310 290 91 41 56 18 49 303 34 136 317 94 123 183 254 112 95 88 97 103 94 93 106 96 86 78 81 75 102 93 89 79 74 68 65 62 58 45 49 55 70 86 103 97 92 109 101 94 115 139 142 153 158 156 148 147 145 150 147 138 134 120 136 130 132 164 161 162 166 166 173 182 177 174 181
129 75 74 140 148 177 213 229 249 125 35 61 318 50 113 99 69 93 114 70 53 184 56 263 162 146 156 159 138 117 112 120 108 75 92 97 95 82 67 57 55 51 48 49 50 48 52 47 62 42 40 63 72 87 92 97 90 93 105 102 95 109 114 137 146 141 141 149 151 135 141 148 146 128 70 55 24 4 191 181 174 174 184 187 173 170
65 68 5 83 88 162 272 249 284 177 124 40 26 346 335 58 87 74 85 163 162 84 340 318 141 133 158 145 134 125 104 83 77 85 78 70 65 75 76 71 67 59 52 55 48 36 37 37 48 67 41 45 61 74 84 86 91 97 104 114 123 133 142 152 146 143 147 149 142 139 149 132 137 126 128 108 82 78 251 249 213 199 188 166 177 177
117 101 313 101 359 30 15 15 17 78 57 83 50 26 9 324 59 96 116 172 128 144 188 161 115 103 98 95 93 72 58 70 61 54 58 70 68 67 65 62 64 64 62 59 51 60 46 24 23 47 50 46 59 72 80 86 89 92 94 93 90 85 82 84 114 124 137 144 153 163 160 151 143 140 128 126 129 90 52 106 90 91 116 171 186 191
91 62 329 11 66 27 10 27 21 63 94 52 38 28 19 45 79 99 92 107 113 123 133 119 96 67 18 3 42 63 80 81 73 60 63 60 59 63 66 66 68 62 59 59 47 32 42 47 21 42 52 48 55 64 70 76 84 87 88 88 86 86 87 85 69 74 78 79 70 66 72 87 97 118 135 132 141 133 141 152 173 152 127 148 184 193
101 278 114 34 58 8 1 32 38 13 16 79 24 27 27 22 61 92 109 89 83 66 90 106 98 74 8 19 81 73 83 93 81 70 70 70 63 66 73 71 67 67 64 55 51 44 31 32 26 30 45 43 51 59 66 71 74 73 70 69 74 76 76 77 80 78 84 82 75 80 90 87 98 119 116 124 135 152 143 115 101 87 86 88 95 119
67 144 45 85 86 0 353 9 352 352 342 69 28 9 3 359 53 335 55 180 133 136 124 112 104 124 98 61 81 66 66 74 86 83 82 68 51 54 69 64 59 55 51 50 49 41 34 35 30 29 33 40 52 58 60 68 70 71 71 72 69 69 68 67 62 58 59 66 68 60 62 83 76 54 57 63 54 37 48 85 84 86 92 99 86 62
95 129 109 91 78 331 6 37 4 333 17 11 356 344 325 291 247 27 28 26 13 146 134 165 174 81 92 80 91 64 63 61 60 51 64 60 53 63 64 58 53 54 48 47 48 36 31 37 36 27 33 36 47 59 57 64 68 63 64 65 64 67 66 65 66 66 60 54 53 56 66 65 68 68 52 41 64 67 58 59 56 37 31 19 10 60
65 117 125 128 108 143 357 49 17 49 109 242 345 334 272 266 306 58 25 348 353 20 13 82 113 104 72 52 63 66 54 49 60 50 32 30 65 77 67 60 56 57 54 51 52 43 32 38 37 40 45 48 50 54 58 60 69 67 63 67 64 65 65 67 63 63 59 58 56 58 64 68 72 66 61 54 51 57 54 54 52 61 48 41 21 40
91 78 100 133 95 139 148 71 43 286 247 10 306 337 7 64 80 90 70 46 43 86 102 94 99 97 101 89 84 83 66 53 55 51 39 37 31 46 79 68 57 51 56 50 54 50 49 48 47 47 45 39 41 46 54 57 57 69 63 60 65 61 65 62 63 58 56 56 54 55 55 59 61 62 60 57 57 57 51 48 42 42 20 38 41 55
129 111 158 47 98 73 73 79 143 237 252 313 285 314 343 95 54 40 56 42 33 61 109 106 106 105 109 111 107 110 101 95 60 50 42 39 45 58 71 75 63 49 60 56 56 51 50 44 45 48 55 49 44 41 45 51 52 65 64 60 62 62 61 63 61 56 51 51 47 48 48 53 54 53 51 54 58 57 50 46 44 36 13 32 32 48
126 96 96 93 1 146 140 81 86 354 4 15 5 357 23 0 353 16 85 9 47 13 130 122 119 118 120 123 130 129 127 103 73 40 27 37 43 44 58 65 75 68 68 64 55 53 56 55 48 42 58 57 46 42 38 35 52 64 64 59 57 60 59 59 58 52 51 50 43 43 43 47 52 50 48 47 51 49 45 39 28 30 21 42 31 33
84 140 200 106 309 108 136 96 103 70 192 228 241 269 210 215 214 234 107 30 49 83 134 129 129 137 133 141 147 152 155 90 70 47 26 35 32 42 34 49 67 71 63 70 64 57 48 48 43 31 45 56 51 43 43 40 45 62 60 57 55 57 56 55 53 50 52 50 45 43 40 41 45 47 45 45 45 43 43 44 45 34 17 40 31 31
33 65 98 113 139 71 58 119 167 168 253 169 280 310 312 272 213 183 72 14 206 153 155 145 134 150 151 150 160 174 126 93 125 144 155 85 71 46 60 58 69 72 68 71 71 63 54 46 51 52 52 57 54 38 41 54 59 60 58 52 52 55 55 50 48 45 46 45 46 48 47 46 46 45 42 45 39 37 34 31 33 23 28 36 38 37
38 6 14 52 45 52 137 94 199 189 179 0 326 319 316 324 232 71 52 265 176 164 157 160 147 153 156 144 134 76 144 146 161 163 134 94 48 38 46 58 63 67 62 59 61 63 53 40 50 54 57 59 52 43 49 52 61 62 57 50 50 52 50 44 43 44 48 47 45 45 46 42 46 48 47 44 42 37 39 28 33 27 33 32 37 36
2 359 40 79 92 40 63 68 30 350 357 355 328 316 309 288 139 83 187 241 165 149 159 164 148 151 146 147 175 107 32 95 117 141 153 162 150 137 132 112 106 106 105 99 94 89 73 59 56 58 58 59 58 56 53 57 63 62 59 56 55 51 44 43 47 47 49 50 54 53 53 52 52 54 51 45 44 48 44 38 36 32 33 29 24 32
10 50 351 57 31 48 33 83 207 243 247 325 319 304 279 38 107 222 247 149 143 139 152 156 149 159 157 165 119 106 105 111 117 116 117 113 102 95 99 104 100 89 80 88 96 95 94 86 79 74 67 62 66 64 65 70 72 69 63 59 56 46 37 46 49 55 57 54 54 53 51 49 46 48 48 42 40 40 39 31 35 36 36 32 32 33
314 74 348 37 302 46 35 78 40 15 263 13 323 324 12 90 235 264 65 66 136 135 145 163 164 175 132 105 104 111 111 113 123 131 133 124 114 106 105 107 107 104 97 89 79 77 92 88 81 79 78 70 66 63 62 67 68 64 59 58 43 21 25 26 33 41 47 50 50 48 46 44 42 38 35 32 30 36 31 22 25 25 26 25 25 25
346 86 1 25 331 126 47 69 151 251 289 319 355 85 326 279 258 270 110 84 86 135 149 154 124 119 116 117 119 114 114 118 101 100 96 97 100 98 94 93 95 94 89 83 94 97 90 87 82 79 70 67 65 62 61 71 73 68 64 54 20 35 36 32 31 39 43 39 36 35 33 31 32 32 30 26 23 27 27 21 20 23 26 22 29 22
331 88 180 135 301 100 116 187 260 275 288 310 350 9 25 16 37 69 87 86 95 53 99 105 109 110 122 119 111 115 108 96 110 115 114 118 108 99 92 89 94 95 92 89 81 79 79 85 86 83 71 60 62 58 60 65 76 72 67 37 39 43 42 39 38 42 40 36 32 28 24 26 25 22 18 18 21 21 15 10 11 12 5 11 11 14
176 111 98 79 82 92 66 70 26 343 332 12 24 23 45 49 34 59 82 84 56 69 80 103 103 110 108 113 113 100 107 118 105 97 97 93 91 85 94 94 86 86 88 86 76 70 81 78 73 72 65 43 42 52 54 55 69 71 68 53 55 51 52 49 48 46 43 38 34 24 22 28 16 14 11 9 13 14 11 8 1 1 352 2 1 2
290 43 63 96 180 44 9 357 29 358 355 19 43 44 53 55 50 64 77 75 80 80 81 74 89 92 102 104 108 117 121 123 118 124 124 117 99 94 99 102 96 99 100 91 90 83 66 70 65 60 55 45 22 43 45 55 51 68 66 58 53 52 52 51 50 46 40 37 31 25 28 33 18 7 6 4 1 1 2 359 0 354 347 347 343 343
19 83 73 79 64 93 165 144 337 350 353 7 12 55 59 62 68 62 76 88 90 84 83 84 79 77 78 91 104 113 117 119 121 125 121 116 119 121 121 119 114 93 81 98 92 85 76 77 86 81 73 58 27 42 51 59 63 54 55 45 48 56 53 46 43 43 34 26 28 23 18 23 12 10 2 355 357 352 346 345 347 347 330 326 324 325
260 31 82 115 83 8 28 17 20 47 30 18 42 50 43 57 77 68 66 75 81 82 74 59 63 89 99 108 104 107 96 68 77 95 86 72 77 97 124 133 131 130 130 112 110 105 109 105 92 102 94 79 87 109 104 115 155 185 149 176 148 100 84 69 49 48 41 23 29 17 7 12 8 359 355 348 343 337 312 300 318 321 310 293 248 244
52 49 10 71 75 327 187 204 172 84 215 212 94 80 72 65 85 87 81 69 70 83 86 84 62 53 67 83 107 100 102 90 79 87 77 70 69 84 105 105 113 128 116 97 110 118 112 103 111 93 74 51 88 132 133 146 179 243 243 215 187 118 96 87 53 39 31 28 39 21 21 14 8 359 358 353 344 339 332 313 309 293 274 283 301 303
114 186 129 135 156 227 238 206 186 147 137 200 186 172 119 123 109 101 96 100 83 94 113 108 97 70 62 42 64 102 101 102 103 91 80 68 64 76 118 132 128 116 108 94 104 93 103 102 89 70 54 25 31 86 147 152 233 303 318 355 20 44 57 71 44 32 15 18 19 12 16 12 2 356 349 350 348 341 332 322 327 322 314 294 287 307